Regional Weather Roundup
Issued by NWS Burlington, VT

Home | Current Version | Previous Version | Text Only | Print | Product List | Glossary On
Versions: 1 2 3 4 5 6 7 8 9 10 11 12 13 14 15 16 17 18 19 20 21 22 23 24 25 26 27 28 29 30 31 32 33 34 35 36 37 38 39 40 41 42 43 44 45 46 47 48 49 50
000
ASUS41 KBTV 050830
RWRBTV
VERMONT REGIONAL WEATHER ROUNDUP
NATIONAL WEATHER SERVICE BURLINGTON VT
300 AM EST THU MAR 05 2015

NOTE: "FAIR" INDICATES FEW OR NO CLOUDS BELOW 12,000 FEET WITH NO
SIGNIFICANT WEATHER AND/OR OBSTRUCTIONS TO VISIBILITY.

* THESE REPORTS ARE NOT UNDER NWS QUALITY CONTROL AND/OR DO NOT
  REPORT WEATHER SUCH AS PRECIPITATION AND FOG.

VTZ001>019-050900-
_____VERMONT_____


CITY           SKY/WX    TMP DP  RH WIND       PRES   REMARKS
BURLINGTON     CLOUDY    25   3  38 W10       29.95R WCI  15
MONTPELIER     CLOUDY    23   0  36 NW12      29.88S WCI  12
MORRISVILLE    CLOUDY    23   4  44 NW9G21    29.91R
ST. JOHNSBURY*   N/A     27   6  41 MISG      29.85S
LYNDONVILLE*   FAIR      23   4  45 W10G20    29.86R WCI  12
MIDDLEBURY*    CLOUDY    26   5  40 N7        29.93R
RUTLAND*       CLOUDY    27   9  46 NW9G20    29.91R
SPRINGFIELD    CLOUDY    30  13  49 NW12G20   29.88R
HIGHGATE*      FAIR      21   3  46 W6        29.98R
NEWPORT*       FAIR      20   4  50 NW14G23   29.88R WCI   6
BENNINGTON     CLOUDY    29  20  69 W10G20    29.91R WCI  20
SUTTON*          N/A     21 N/A N/A MISG        N/A
MT. MANSFIELD*   N/A      7 N/A N/A CALM        N/A

_____LAKE CHAMPLAIN_____


CITY           SKY/WX    TMP DP  RH WIND       PRES   REMARKS
BURTON ISLAND*   N/A     23   9  54 W20         N/A  WCI   8
COLCHESTER RF*   N/A     25   7  46 NW17        N/A  WCI  11
DIAMOND ISL*     N/A     27   1  33 N8          N/A

$$

NYZ007-026>031-035-052-083-050900-
_____NORTHERN NEW YORK_____


CITY           SKY/WX    TMP DP  RH WIND       PRES   REMARKS
PLATTSBURGH    CLOUDY    22   2  42 W9G18     29.98R
SARANAC LAKE   CLOUDY    15   2  56 VRB5      29.87R
MASSENA        CLOUDY    17   2  51 W14       30.05R WCI   3
OGDENSBURG*    SUNNY     18   3  53 NW9G16    30.05R
POTSDAM*       SUNNY     18   3  53 NW9       30.04R
WATERTOWN      CLOUDY    20   4  50 W13       30.09R WCI   7
FT DRUM        CLOUDY    18   3  53 NW6       30.03R
ALBANY         FLURRIES  30  17  58 NW15G26   29.95R WCI  19
GLENS FALLS    CLOUDY    29  12  49 N9        29.94S

$$
NHZ002-005-011-050900-
_____NEW HAMPSHIRE_____


CITY           SKY/WX    TMP DP  RH WIND       PRES   REMARKS
LEBANON        CLOUDY    31  13  47 NW5       29.85F
KEENE          CLOUDY    34  16  47 NW10G16   29.86F
MT WASHINGTON  PTSUNNY    0  -6  78 NW66G75     N/A  WCI -35
PLYMOUTH       PTSUNNY   31  16  53 NW10G18   29.83F
WHITEFIELD     CLOUDY    27   4  37 W12       29.81S WCI  17

$$

_____REGIONAL QUEBEC LOCATIONS_____


CITY           SKY/WX    TMP DP  RH WIND       PRES   REMARKS
MONTREAL       PTSUNNY   18   9  68 NW10G18   29.98R WCI   6
QUEBEC CITY    MOSUNNY   10  -4  52 W9        29.90R
SHERBROOKE     FLURRIES  16  10  79 NW12G17   29.88R WCI   3

_____REGIONAL ONTARIO LOCATIONS_____


CITY           SKY/WX    TMP DP  RH WIND       PRES   REMARKS
OTTAWA         CLOUDY    14   5  67 NW18      30.06R WCI  -3

______KEY______
VSB  - VISIBILITY IN MILES
WCI  - WIND CHILL INDEX
HX   - HEAT INDEX
$$
NNNN


USA.gov is the U.S. government's official web portal to all federal, state and local government web resources and services.